Powrót do katalogu

STARLINK-4723

AktywnyŁącznośćVLEO
NORAD 53797·PAYLOAD·🇺🇸 United States

Wystrzelony Sep 11, 2022 z Cape Canaveral Space Force Station

Loading…

Następne Przeloty (najbliższe 24 godziny)

TLE

ŚwieżeSource: CelesTrak SupGP

Epoka: Sep 14, 2026, 20:51 UTC

1 53797C 22111AA  26257.86923611 -.00037282  00000+0 -11989-2 0  2576
2 53797  53.1585 132.3434 0001354  87.6267 340.8838 15.31721104    19

Śledź STARLINK-4723 w czasie rzeczywistym z AllMySat

Download on the App Store